{"data":{"norad_id":62141,"epoch":"2026-05-25T04:49:27.506784Z","epoch_age_seconds":57592,"freshness":"FRESH","line1":"1 62141U 24224C   26145.20101281  .00013754  00000+0  50849-3 0  9999","line2":"2 62141  42.9974  85.8218 0001159 263.9606  96.1114 15.27573429 84022","mean_motion":15.27573429,"eccentricity":0.0001159,"inclination_deg":42.9974,"raan_deg":85.8218,"arg_perigee_deg":263.9606,"mean_anomaly_deg":96.1114,"bstar":0.00050849,"rev_number":8402,"period_min":94.267154210889,"perigee_km":482.27355829911,"apogee_km":483.86398579707,"semimajor_km":6861.2057720481,"source":"CELESTRAK","updated_at":"2026-05-25T13:38:19.568938Z"}}